Regional Weather Roundup
Issued by NWS

Home | Current Version | Previous Version | Graphics & Text | Print | Product List | Glossary On
Versions: 1 2 3 4 5 6 7 8 9 10 11 12 13 14 15 16 17 18 19 20 21 22 23 24 25 26 27 28 29 30 31 32 33 34 35 36 37 38 39 40 41 42 43 44 45 46 47 48 49 50
000
ASUS43 KLOT 270900
RWRIL

ILLINOIS REGIONAL WEATHER ROUNDUP
NATIONAL WEATHER SERVICE CHICAGO/ROMEOVILLE IL
400 AM CDT WED AUG 27 2014

NOTE: "FAIR" INDICATES FEW OR NO CLOUDS BELOW 12,000 FEET WITH NO
SIGNIFICANT WEATHER AND/OR OBSTRUCTIONS TO VISIBILITY.

* THESE STATIONS ARE NOT UNDER NWS QUALITY CONTROL. THEY ALSO MAY NOT
  REPORT WEATHER SUCH AS PRECIPITATION OR FOG.

ILZ001-002-007-009-015-016-024-271000-
NORTHWEST ILLINOIS

CITY           SKY/WX    TMP DP  RH WIND       PRES   REMARKS
MOLINE         MOCLDY    71  64  78 NE7       30.11F
STERLING*      CLOUDY    68  63  83 N3        30.13F
$$

ILZ003-004-008-010-011-017-018-271000-
NORTH CENTRAL ILLINOIS

CITY           SKY/WX    TMP DP  RH WIND       PRES   REMARKS
ROCKFORD       CLOUDY    67  58  72 NE6       30.15S
FREEPORT*      CLOUDY    63  60  93 NE3       30.16F
ROCHELLE*      CLOUDY    66  61  83 N5        30.14S
$$

ILZ005-006-012>014-019>023-271000-
NORTHEAST ILLINOIS

CITY           SKY/WX    TMP DP  RH WIND       PRES   REMARKS
CHICAGO-OHARE  CLOUDY    69  63  81 N6        30.11S
CHICAGO-MIDWAY CLOUDY    73  64  73 NE6       30.11S
AURORA         CLOUDY    68  63  84 N5        30.12S
WAUKEGAN       CLOUDY    65  61  87 N3        30.12F
DUPAGE AIRPORT MOCLDY    67  64  90 N6        30.12S
WHEELING       MOCLDY    68  64  87 NE3       30.12F
NORTHERLY ISL    N/A     71  62  73 NE7         N/A
$$

LMZ740>746-271000-
SOUTHERN LAKE MICHIGAN

STATION/POSITION SKY/WX   TEMP    WIND        PRES    VSBY  WAVE
                          AIR SEA DIR/SP/G                  HT/PER
                          (F)     (DEG/KT/KT) (MB)    (MI)  (FT/S)
SOUTHERN BUOY              68 69   CALM  /  2 1020.0R         1
WAUKEGAN HARBOR            67     350/  5/  7   N/A
HARRISON CRIB              71      30/  8/  9   N/A
BURNHAM HARBOR             71      30/  6/  7   N/A
CALUMET HARBOR             71      30/  5/  8 1018.3S
MICHIGAN CITY              68      40/  7/  9   N/A
MICHIGAN CITY 6N           71 73   70/  8/ 10   N/A           1/ 3
$$

ILZ025>027-034>036-040-047-049-050-058-095>099-271000-
WEST-CENTRAL ILLINOIS

CITY           SKY/WX    TMP DP  RH WIND       PRES   REMARKS
QUINCY         PTCLDY    71  69  93 N7        30.09F
MACOMB*        PTCLDY    69  68  95 N3        30.12F
$$

ILZ028>032-037-038-041>044-048-051>054-059>061-271000-
CENTRAL ILLINOIS

CITY           SKY/WX    TMP DP  RH WIND       PRES   REMARKS
DECATUR        PTCLDY    69  66  90 CALM      30.10S
PEORIA         MOCLDY    74  67  78 NE3       30.10F
SPRINGFIELD    MOCLDY    71  66  84 NE8       30.09R
TAYLORVILLE    NOT AVBL
$$

ILZ033-039-045-046-055>057-062-063-271000-
EAST-CENTRAL ILLINOIS

CITY           SKY/WX    TMP DP  RH WIND       PRES   REMARKS
CHAMPAIGN      PTCLDY    69  65  86 N3        30.10R
MATTOON        MOCLDY    69  67  93 SE5       30.08S
$$

ILZ079-100>102-271000-
SOUTHWEST ILLINOIS

CITY           SKY/WX    TMP DP  RH WIND       PRES   REMARKS
BELLEVILLE     CLEAR     71  70  96 W5        30.05F
$$

ILZ064>066-069>071-074>076-080>082-084>086-088>090-092>094-271000-
SOUTH-CENTRAL ILLINOIS

CITY           SKY/WX    TMP DP  RH WIND       PRES   REMARKS
CARBONDALE     CLEAR     73  71  93 CALM      30.06S FOG
MT. VERNON     PTCLDY    72  68  88 CALM      30.06F
SALEM*         PTCLDY    73  70  91 CALM      30.06F
$$

ILZ067-068-072-073-078-083-087-091-271000-
SOUTHEAST ILLINOIS

CITY           SKY/WX    TMP DP  RH WIND       PRES   REMARKS
LAWRENCEVILLE  MOCLDY    73  71  93 N7        30.07R
ROBINSON*      MOCLDY    73  72  97 CALM      30.09S
$$

ABBREVIATIONS USED IN REMARKS
   TC - TEMPERATURE IN CELSIUS
  WCI - WIND CHILL INDEX
   HX - HEAT INDEX
  VSB - VISIBILITY
$$



USA.gov is the U.S. government's official web portal to all federal, state and local government web resources and services.